Weather History for Bloomington, IN

Change the Weather History Date:

Thursday, October 3, 2013

  Actual Average Record
Temperature  
Mean Temperature 74 °F 59 °F  
Max Temperature 82 °F 71 °F 86 °F (2005)
Min Temperature 66 °F 46 °F 30 °F (2003)
Degree Days  
Heating Degree Days 0 7  
Month to date heating degree days 0 21  
Since 1 July heating degree days 64 106  
Cooling Degree Days 9 1  
Month to date cooling degree days 17 3  
Year to date cooling degree days 993 916  
Growing Degree Days 24 (Base 50)    
Moisture  
Dew Point 65 °F    
Average Humidity 78    
Maximum Humidity 100    
Minimum Humidity 55    
Precipitation  
Precipitation T in 0.12 in 0.69 in (2014)
Month to date precipitation T 0.36  
Year to date precipitation 32.18 36.90  
Sea Level Pressure  
Sea Level Pressure 30.03 in    
Wind  
Wind Speed 6 mph (SSW)    
Max Wind Speed 15 mph    
Max Gust Speed 21 mph    
Visibility 8 miles    
Events      
T = Trace of Precipitation, MM = Missing Value Source: NWS Daily Summary

Daily Weather History Graph

Daily Weather History Graph

Search for Another Location

Airport:

Trip Planner

Search our weather history database for the weather conditions in past years. The results will help you decide how hot, cold, wet, or windy it might be!

Date:

Astronomy

Oct. 03, 2013 Rise Set
Actual Time 7:44 AM EDT 7:25 PM EDT
Civil Twilight 7:17 AM EDT 7:52 PM EDT
Nautical Twilight 6:46 AM EDT 8:23 PM EDT
Astronomical Twilight 6:15 AM EDT 8:54 PM EDT
Moon 6:17 AM EDT (10/3) 6:33 PM EDT (10/3)
Length of Visible Light 12h 34m
Length of Day
11h 40m
Waning Crescent, 2% of the Moon is Illuminated
Oct 3
Waning Crescent
Oct 4
New
Oct 11
First Quarter
Oct 18
Full
Oct 26
Last Quarter

Hourly Weather History & Observations

Time (EDT) Temp. Heat Index Dew Point Humidity Pressure Visibility Wind Dir Wind Speed Gust Speed Precip Events Conditions
12:53 AM 66.9 °F - 64.9 °F 93% 30.04 in 5.0 mi Calm Calm - N/A   Partly Cloudy
1:53 AM 66.9 °F - 64.0 °F 90% 30.03 in 10.0 mi South 3.5 mph - N/A   Clear
2:53 AM 66.9 °F - 64.0 °F 90% 30.03 in 10.0 mi SSW 4.6 mph - N/A   Clear
3:53 AM 68.0 °F - 64.9 °F 90% 30.02 in 10.0 mi Variable 4.6 mph - N/A   Clear
4:53 AM 66.9 °F - 64.9 °F 93% 30.03 in 10.0 mi Calm Calm - N/A   Partly Cloudy
5:30 AM 66.2 °F - 64.4 °F 94% 30.05 in 8.0 mi SSW 4.6 mph - N/A   Mostly Cloudy
5:53 AM 66.9 °F - 66.0 °F 97% 30.04 in 6.0 mi South 3.5 mph - N/A   Scattered Clouds
6:21 AM 66.2 °F - 66.2 °F 100% 30.06 in 5.0 mi Calm Calm - N/A   Mostly Cloudy
6:28 AM 68.0 °F - 66.2 °F 94% 30.06 in 4.0 mi SSW 3.5 mph - N/A   Mostly Cloudy
6:53 AM 68.0 °F - 66.9 °F 96% 30.04 in 4.0 mi SW 3.5 mph - N/A   Overcast
7:03 AM 68.0 °F - 66.2 °F 94% 30.06 in 4.0 mi Calm Calm - N/A   Overcast
7:53 AM 68.0 °F - 66.9 °F 96% 30.05 in 4.0 mi SSW 3.5 mph - N/A   Overcast
8:08 AM 68.0 °F - 66.2 °F 94% 30.07 in 2.5 mi SSW 4.6 mph - N/A   Overcast
8:27 AM 68.0 °F - 66.2 °F 94% 30.07 in 3.0 mi SW 4.6 mph - N/A   Overcast
8:53 AM 69.1 °F - 66.9 °F 93% 30.06 in 7.0 mi SW 3.5 mph - 0.00 in   Overcast
9:53 AM 70.0 °F - 66.9 °F 90% 30.07 in 10.0 mi SSW 4.6 mph - N/A   Mostly Cloudy
10:53 AM 73.0 °F - 66.0 °F 79% 30.06 in 10.0 mi South 8.1 mph - N/A   Mostly Cloudy
11:53 AM 75.0 °F - 66.0 °F 73% 30.06 in 10.0 mi SW 9.2 mph - N/A   Partly Cloudy
12:53 PM 78.1 °F - 66.0 °F 66% 30.05 in 10.0 mi SSW 9.2 mph - N/A   Partly Cloudy
1:53 PM 81.0 °F 82.5 °F 64.0 °F 56% 30.02 in 10.0 mi SW 9.2 mph 19.6 mph N/A   Clear
2:53 PM 80.1 °F 81.7 °F 64.0 °F 58% 30.00 in 10.0 mi SW 9.2 mph - N/A   Mostly Cloudy
3:53 PM 82.0 °F 83.8 °F 64.9 °F 56% 29.98 in 10.0 mi SSW 10.4 mph - N/A   Scattered Clouds
4:53 PM 81.0 °F 82.7 °F 64.9 °F 58% 29.98 in 10.0 mi SSW 6.9 mph - N/A   Partly Cloudy
5:53 PM 80.1 °F 81.9 °F 64.9 °F 60% 29.97 in 10.0 mi South 9.2 mph - N/A   Clear
6:53 PM 77.0 °F - 64.9 °F 66% 29.97 in 10.0 mi South 5.8 mph - N/A   Clear
7:53 PM 73.0 °F - 64.9 °F 76% 29.97 in 10.0 mi South 4.6 mph - N/A   Clear
8:53 PM 73.0 °F - 64.9 °F 76% 29.98 in 10.0 mi South 8.1 mph - N/A   Clear
9:53 PM 73.0 °F - 64.9 °F 76% 30.00 in 10.0 mi South 4.6 mph - N/A   Partly Cloudy
10:53 PM 71.1 °F - 66.0 °F 84% 30.01 in 10.0 mi SSE 3.5 mph - N/A   Partly Cloudy